Find Starlink 31531

NORAD ID: 59477 Int'l Des: 2024-068 Owner: SPXS Country: US Constellation: starlink operational
LEOCIRCULAR

实时位置

正在加载3D地球...

关于 Starlink 31531

正在加载描述...

即将过境

Passes for default location (London). Set your location on the main map for personalized predictions.

高度历史

Loading altitude history...

两行轨道根数

1 59477U 24068Y 26107.10413683 .00001276 00000-0 55890-4 0 9991
2 59477 43.0047 122.4189 0001663 275.8474 84.2188 15.27573059115026
Epoch: Apr 17, 2026 • Age: 12 hours

当前状态

高度 485.5 km
速度 7.62 km/s
星下点 -14.33°S, 105.71°W
发射日期 Apr 10, 2024
运行时间 2 years
类型 internet

技术详情

分类 Payload
质量 730.00 kg
干质量 700.00 kg
总质量 730.00 kg
长度 0.30 m
直径 4.10 m
跨度 29.00 m
形状 Box + pan
制造商 SPXS
平台类型 Starlink V2M
阶段状态 In Orbit
所有者/国家 SPXS/US

Most Searched